Time,TemperatureF,DewpointF,PressureIn,WindDirection,WindDirectionDegrees,WindSpeedMPH,WindSpeedGustMPH,Humidity,HourlyPrecipIn,Conditions,Clouds,dailyrainin,SoftwareType,DateUTC
2013-02-26 00:00:00,47.3,41.0,29.80,SW,225,0.0,0.0,75,0.00,,,0.00,WeatherTracker,2013-02-26 08:00:00,
2013-02-26 00:05:00,47.5,41.0,29.80,NNW,337,0.0,0.0,74,0.00,,,0.00,WeatherTracker,2013-02-26 08:05:00,
2013-02-26 00:10:00,47.5,41.0,29.80,NNW,337,0.0,0.0,75,0.00,,,0.00,WeatherTracker,2013-02-26 08:10:00,
2013-02-26 00:20:00,47.1,39.2,29.80,NNW,337,0.0,0.0,74,0.00,,,0.00,WeatherTracker,2013-02-26 08:20:00,
2013-02-26 00:25:00,47.1,41.0,29.80,NW,315,0.0,0.0,75,0.00,,,0.00,WeatherTracker,2013-02-26 08:25:00,
2013-02-26 00:30:00,47.1,41.0,29.80,West,270,0.0,0.0,75,0.00,,,0.00,WeatherTracker,2013-02-26 08:30:00,
2013-02-26 00:35:00,47.1,41.0,29.80,NW,315,0.0,0.0,75,0.00,,,0.00,WeatherTracker,2013-02-26 08:35:00,
2013-02-26 00:40:00,46.8,39.2,29.80,NW,315,0.0,0.0,75,0.00,,,0.00,WeatherTracker,2013-02-26 08:40:00,
2013-02-26 00:45:00,46.6,39.2,29.80,NW,315,0.0,0.0,75,0.00,,,0.00,WeatherTracker,2013-02-26 08:45:00,
2013-02-26 00:50:00,46.6,39.2,29.80,NNW,337,0.0,0.0,75,0.00,,,0.00,WeatherTracker,2013-02-26 08:50:00,
2013-02-26 00:55:00,46.4,39.2,29.80,NNW,337,0.0,0.0,75,0.00,,,0.00,WeatherTracker,2013-02-26 08:55:00,
2013-02-26 01:00:00,46.2,39.2,29.80,NNW,337,0.0,0.0,77,0.00,,,0.00,WeatherTracker,2013-02-26 09:00:00,
2013-02-26 01:05:00,46.2,39.2,29.80,NNW,337,0.0,0.0,77,0.00,,,0.00,WeatherTracker,2013-02-26 09:05:00,
2013-02-26 01:10:00,46.2,39.2,29.80,NNW,337,0.0,0.0,77,0.00,,,0.00,WeatherTracker,2013-02-26 09:10:00,
2013-02-26 01:15:00,46.2,39.2,29.80,NNW,337,0.0,0.0,77,0.00,,,0.00,WeatherTracker,2013-02-26 09:15:00,
2013-02-26 01:20:00,46.0,39.2,29.80,NNW,337,0.0,0.0,78,0.00,,,0.00,WeatherTracker,2013-02-26 09:20:00,
2013-02-26 01:25:00,45.9,39.2,29.80,NNW,337,0.0,0.0,77,0.00,,,0.00,WeatherTracker,2013-02-26 09:25:00,
2013-02-26 01:30:00,45.7,39.2,29.80,NNW,337,0.0,0.0,77,0.00,,,0.00,WeatherTracker,2013-02-26 09:30:00,
2013-02-26 01:35:00,45.5,39.2,29.80,NNW,337,0.0,0.0,77,0.00,,,0.00,WeatherTracker,2013-02-26 09:35:00,
2013-02-26 01:40:00,45.3,39.2,29.80,NNW,337,0.0,0.0,78,0.00,,,0.00,WeatherTracker,2013-02-26 09:40:00,
2013-02-26 01:45:00,45.1,39.2,29.80,NNW,337,0.0,0.0,78,0.00,,,0.00,WeatherTracker,2013-02-26 09:45:00,
2013-02-26 01:55:00,45.0,39.2,29.80,NNW,337,0.0,0.0,78,0.00,,,0.00,WeatherTracker,2013-02-26 09:55:00,
2013-02-26 02:05:00,44.8,39.2,29.80,NNW,337,0.0,0.0,79,0.00,,,0.00,WeatherTracker,2013-02-26 10:05:00,
2013-02-26 02:10:00,44.6,39.2,29.80,NNW,337,0.0,0.0,79,0.00,,,0.00,WeatherTracker,2013-02-26 10:10:00,
2013-02-26 02:15:00,44.6,39.2,29.80,NNW,337,0.0,0.0,80,0.00,,,0.00,WeatherTracker,2013-02-26 10:15:00,
2013-02-26 02:20:00,44.6,39.2,29.80,NNW,337,0.0,0.0,80,0.00,,,0.00,WeatherTracker,2013-02-26 10:20:00,
2013-02-26 02:25:00,44.4,39.2,29.80,NNW,337,0.0,0.0,80,0.00,,,0.00,WeatherTracker,2013-02-26 10:25:00,
2013-02-26 02:30:00,44.2,39.2,29.80,NNW,337,0.0,0.0,81,0.00,,,0.00,WeatherTracker,2013-02-26 10:30:00,
2013-02-26 02:35:00,44.2,39.2,29.80,NNW,337,0.0,0.0,81,0.00,,,0.00,WeatherTracker,2013-02-26 10:35:00,
2013-02-26 02:40:00,44.2,39.2,29.80,NNW,337,0.0,0.0,81,0.00,,,0.00,WeatherTracker,2013-02-26 10:40:00,
2013-02-26 02:45:00,44.2,39.2,29.80,NNW,337,0.0,0.0,81,0.00,,,0.00,WeatherTracker,2013-02-26 10:45:00,
2013-02-26 02:50:00,44.2,39.2,29.80,NNW,337,0.0,0.0,81,0.00,,,0.00,WeatherTracker,2013-02-26 10:50:00,
2013-02-26 02:55:00,44.1,39.2,29.80,NNW,337,0.0,0.0,82,0.00,,,0.00,WeatherTracker,2013-02-26 10:55:00,
2013-02-26 03:05:00,44.1,39.2,29.77,NNW,337,0.0,0.0,82,0.00,,,0.00,WeatherTracker,2013-02-26 11:05:00,
2013-02-26 03:10:00,43.9,39.2,29.77,NNW,337,0.0,0.0,83,0.00,,,0.00,WeatherTracker,2013-02-26 11:10:00,
2013-02-26 03:15:00,43.9,39.2,29.77,NNW,337,0.0,0.0,83,0.00,,,0.00,WeatherTracker,2013-02-26 11:15:00,
2013-02-26 03:20:00,43.9,39.2,29.77,NNW,337,0.0,0.0,83,0.00,,,0.00,WeatherTracker,2013-02-26 11:20:00,
2013-02-26 03:25:00,43.9,39.2,29.77,NNW,337,0.0,0.0,83,0.00,,,0.00,WeatherTracker,2013-02-26 11:25:00,
2013-02-26 03:30:00,43.7,39.2,29.77,NNW,337,0.0,0.0,83,0.00,,,0.00,WeatherTracker,2013-02-26 11:30:00,
2013-02-26 03:35:00,43.7,39.2,29.77,NNW,337,0.0,0.0,83,0.00,,,0.00,WeatherTracker,2013-02-26 11:35:00,
2013-02-26 03:40:00,43.7,39.2,29.77,NNW,337,0.0,0.0,84,0.00,,,0.00,WeatherTracker,2013-02-26 11:40:00,
2013-02-26 03:45:00,43.7,39.2,29.80,NNW,337,0.0,0.0,84,0.00,,,0.00,WeatherTracker,2013-02-26 11:45:00,
2013-02-26 03:50:00,43.5,39.2,29.80,NNW,337,0.0,0.0,84,0.00,,,0.00,WeatherTracker,2013-02-26 11:50:00,
2013-02-26 03:55:00,43.5,39.2,29.80,NNW,337,0.0,0.0,84,0.00,,,0.00,WeatherTracker,2013-02-26 11:55:00,
2013-02-26 04:00:00,43.5,39.2,29.77,WSW,247,0.0,0.0,84,0.00,,,0.00,WeatherTracker,2013-02-26 12:00:00,
2013-02-26 04:05:00,43.7,39.2,29.77,NE,45,0.0,0.0,83,0.00,,,0.00,WeatherTracker,2013-02-26 12:05:00,
2013-02-26 04:10:00,44.1,39.2,29.77,NE,45,0.0,0.0,83,0.00,,,0.00,WeatherTracker,2013-02-26 12:10:00,
2013-02-26 04:15:00,44.2,39.2,29.77,West,270,0.0,0.0,82,0.00,,,0.00,WeatherTracker,2013-02-26 12:15:00,
2013-02-26 04:20:00,44.4,39.2,29.77,SW,225,0.0,0.0,82,0.00,,,0.00,WeatherTracker,2013-02-26 12:20:00,
2013-02-26 04:25:00,44.4,39.2,29.77,West,270,0.0,0.0,81,0.00,,,0.00,WeatherTracker,2013-02-26 12:25:00,
2013-02-26 04:30:00,44.4,39.2,29.77,East,90,0.0,0.0,80,0.00,,,0.00,WeatherTracker,2013-02-26 12:30:00,
2013-02-26 04:35:00,44.6,39.2,29.77,SW,225,0.0,0.0,79,0.00,,,0.00,WeatherTracker,2013-02-26 12:35:00,
2013-02-26 04:40:00,44.8,37.4,29.77,SW,225,0.0,0.0,78,0.00,,,0.00,WeatherTracker,2013-02-26 12:40:00,
2013-02-26 04:51:00,45.0,39.2,29.77,West,270,0.0,2.0,77,0.00,,,0.00,WeatherTracker,2013-02-26 12:51:00,
2013-02-26 04:55:00,45.1,39.2,29.77,South,180,1.0,0.0,77,0.00,,,0.00,WeatherTracker,2013-02-26 12:55:00,
2013-02-26 05:00:00,45.3,37.4,29.77,North,0,0.0,1.0,76,0.00,,,0.00,WeatherTracker,2013-02-26 13:00:00,
2013-02-26 05:05:00,45.3,37.4,29.77,SE,135,0.0,0.0,76,0.00,,,0.00,WeatherTracker,2013-02-26 13:05:00,
2013-02-26 05:10:00,45.3,37.4,29.77,SW,225,0.0,0.0,75,0.00,,,0.00,WeatherTracker,2013-02-26 13:10:00,
2013-02-26 05:15:00,45.3,37.4,29.80,SW,225,0.0,0.0,75,0.00,,,0.00,WeatherTracker,2013-02-26 13:15:00,
2013-02-26 05:20:00,45.1,37.4,29.80,NE,45,0.0,0.0,75,0.00,,,0.00,WeatherTracker,2013-02-26 13:20:00,
2013-02-26 05:25:00,45.1,37.4,29.80,ESE,112,0.0,0.0,75,0.00,,,0.00,WeatherTracker,2013-02-26 13:25:00,
2013-02-26 05:30:00,45.0,37.4,29.77,ESE,112,0.0,0.0,75,0.00,,,0.00,WeatherTracker,2013-02-26 13:30:00,
2013-02-26 05:35:00,45.0,37.4,29.77,NW,315,0.0,1.0,75,0.00,,,0.00,WeatherTracker,2013-02-26 13:35:00,
2013-02-26 05:40:00,45.0,37.4,29.77,North,0,1.0,0.0,75,0.00,,,0.00,WeatherTracker,2013-02-26 13:40:00,
2013-02-26 05:45:00,45.1,37.4,29.77,NE,45,0.0,0.0,75,0.00,,,0.00,WeatherTracker,2013-02-26 13:45:00,
2013-02-26 05:50:00,45.1,37.4,29.77,SSE,157,0.0,0.0,75,0.00,,,0.00,WeatherTracker,2013-02-26 13:50:00,
2013-02-26 05:55:00,45.1,37.4,29.77,WNW,292,0.0,0.0,75,0.00,,,0.00,WeatherTracker,2013-02-26 13:55:00,
2013-02-26 06:00:00,45.1,37.4,29.80,NW,315,1.0,0.0,74,0.00,,,0.00,WeatherTracker,2013-02-26 14:00:00,
2013-02-26 06:10:00,45.1,37.4,29.80,ENE,67,0.0,0.0,75,0.00,,,0.00,WeatherTracker,2013-02-26 14:10:00,
2013-02-26 06:15:00,45.0,37.4,29.80,NW,315,0.0,0.0,75,0.00,,,0.00,WeatherTracker,2013-02-26 14:15:00,
2013-02-26 06:20:00,44.8,37.4,29.80,NNW,337,0.0,2.0,75,0.00,,,0.00,WeatherTracker,2013-02-26 14:20:00,
2013-02-26 06:25:00,44.8,37.4,29.80,ENE,67,0.0,0.0,75,0.00,,,0.00,WeatherTracker,2013-02-26 14:25:00,
2013-02-26 06:30:00,44.8,37.4,29.80,NE,45,0.0,0.0,75,0.00,,,0.00,WeatherTracker,2013-02-26 14:30:00,
2013-02-26 06:35:00,44.8,37.4,29.80,NNE,22,0.0,1.0,75,0.00,,,0.00,WeatherTracker,2013-02-26 14:35:00,
2013-02-26 06:40:00,44.8,37.4,29.80,NNW,337,1.0,2.0,76,0.00,,,0.00,WeatherTracker,2013-02-26 14:40:00,
2013-02-26 06:45:00,44.8,37.4,29.80,NNW,337,1.0,1.0,75,0.00,,,0.00,WeatherTracker,2013-02-26 14:45:00,
2013-02-26 06:50:00,45.0,37.4,29.80,West,270,0.0,1.0,75,0.00,,,0.00,WeatherTracker,2013-02-26 14:50:00,
2013-02-26 06:55:00,45.1,37.4,29.80,ENE,67,0.0,1.0,75,0.00,,,0.00,WeatherTracker,2013-02-26 14:55:00,
2013-02-26 07:00:00,45.1,37.4,29.80,West,270,1.0,0.0,74,0.00,,,0.00,WeatherTracker,2013-02-26 15:00:00,
2013-02-26 07:05:00,45.1,37.4,29.80,West,270,0.0,0.0,73,0.00,,,0.00,WeatherTracker,2013-02-26 15:05:00,
2013-02-26 07:10:00,45.3,37.4,29.80,SSW,202,1.0,0.0,72,0.00,,,0.00,WeatherTracker,2013-02-26 15:10:00,
2013-02-26 07:15:00,45.5,37.4,29.80,NW,315,2.0,3.0,71,0.00,,,0.00,WeatherTracker,2013-02-26 15:15:00,
2013-02-26 07:20:00,45.7,37.4,29.80,NNE,22,1.0,2.0,70,0.00,,,0.00,WeatherTracker,2013-02-26 15:20:00,
2013-02-26 07:25:00,45.9,35.6,29.80,WNW,292,1.0,2.0,69,0.00,,,0.00,WeatherTracker,2013-02-26 15:25:00,
2013-02-26 07:30:00,45.9,35.6,29.80,North,0,1.0,0.0,69,0.00,,,0.00,WeatherTracker,2013-02-26 15:30:00,
2013-02-26 07:35:00,46.0,35.6,29.80,SE,135,0.0,0.0,69,0.00,,,0.00,WeatherTracker,2013-02-26 15:35:00,
2013-02-26 07:40:00,46.0,37.4,29.80,NNW,337,0.0,2.0,70,0.00,,,0.00,WeatherTracker,2013-02-26 15:40:00,
2013-02-26 07:45:00,46.0,37.4,29.80,NNW,337,0.0,0.0,71,0.00,,,0.00,WeatherTracker,2013-02-26 15:45:00,
2013-02-26 07:50:00,46.0,37.4,29.80,East,90,0.0,0.0,71,0.00,,,0.00,WeatherTracker,2013-02-26 15:50:00,
2013-02-26 07:55:00,46.0,37.4,29.80,SSE,157,0.0,0.0,72,0.00,,,0.00,WeatherTracker,2013-02-26 15:55:00,
2013-02-26 08:00:00,46.0,37.4,29.80,NNW,337,0.0,0.0,70,0.00,,,0.00,WeatherTracker,2013-02-26 16:00:00,
2013-02-26 08:05:00,46.2,37.4,29.80,NW,315,0.0,0.0,70,0.00,,,0.00,WeatherTracker,2013-02-26 16:05:00,
2013-02-26 08:10:00,46.0,37.4,29.80,NW,315,0.0,0.0,71,0.00,,,0.00,WeatherTracker,2013-02-26 16:10:00,
2013-02-26 08:15:00,46.2,37.4,29.80,SE,135,0.0,0.0,71,0.00,,,0.00,WeatherTracker,2013-02-26 16:15:00,
2013-02-26 08:20:00,46.2,37.4,29.80,NE,45,0.0,0.0,70,0.00,,,0.00,WeatherTracker,2013-02-26 16:20:00,
2013-02-26 08:25:00,46.2,37.4,29.80,East,90,1.0,0.0,73,0.00,,,0.00,WeatherTracker,2013-02-26 16:25:00,
2013-02-26 08:30:00,46.0,39.2,29.80,SE,135,1.0,0.0,75,0.00,,,0.00,WeatherTracker,2013-02-26 16:30:00,
2013-02-26 08:35:00,45.7,37.4,29.80,NW,315,0.0,0.0,73,0.00,,,0.00,WeatherTracker,2013-02-26 16:35:00,
2013-02-26 08:41:00,45.5,37.4,29.80,ENE,67,1.0,0.0,73,0.00,,,0.00,WeatherTracker,2013-02-26 16:41:00,
2013-02-26 08:45:00,45.7,37.4,29.83,West,270,1.0,0.0,72,0.00,,,0.00,WeatherTracker,2013-02-26 16:45:00,
2013-02-26 08:50:00,45.7,37.4,29.83,South,180,1.0,0.0,72,0.00,,,0.00,WeatherTracker,2013-02-26 16:50:00,
2013-02-26 08:55:00,45.7,37.4,29.83,ESE,112,2.0,0.0,72,0.00,,,0.00,WeatherTracker,2013-02-26 16:55:00,
2013-02-26 09:00:00,45.7,37.4,29.83,SSW,202,0.0,0.0,72,0.00,,,0.00,WeatherTracker,2013-02-26 17:00:00,
2013-02-26 09:05:00,45.7,37.4,29.83,SW,225,0.0,0.0,72,0.00,,,0.00,WeatherTracker,2013-02-26 17:05:00,
2013-02-26 09:10:00,45.7,37.4,29.83,South,180,0.0,1.0,72,0.00,,,0.00,WeatherTracker,2013-02-26 17:10:00,
2013-02-26 09:15:00,45.7,37.4,29.83,East,90,1.0,1.0,72,0.00,,,0.00,WeatherTracker,2013-02-26 17:15:00,
2013-02-26 09:20:00,45.7,37.4,29.83,West,270,1.0,1.0,72,0.00,,,0.00,WeatherTracker,2013-02-26 17:20:00,
2013-02-26 09:25:00,45.7,37.4,29.83,WSW,247,2.0,2.0,72,0.00,,,0.00,WeatherTracker,2013-02-26 17:25:00,
2013-02-26 09:30:00,45.7,37.4,29.83,NE,45,1.0,0.0,72,0.00,,,0.00,WeatherTracker,2013-02-26 17:30:00,
2013-02-26 09:35:00,45.7,37.4,29.83,WSW,247,1.0,2.0,72,0.00,,,0.00,WeatherTracker,2013-02-26 17:35:00,
2013-02-26 09:40:00,45.7,37.4,29.83,East,90,1.0,0.0,72,0.00,,,0.00,WeatherTracker,2013-02-26 17:40:00,
2013-02-26 09:45:00,45.7,37.4,29.83,ENE,67,1.0,1.0,72,0.00,,,0.00,WeatherTracker,2013-02-26 17:45:00,
2013-02-26 09:51:00,45.7,37.4,29.83,NW,315,1.0,0.0,72,0.00,,,0.00,WeatherTracker,2013-02-26 17:51:00,
2013-02-26 10:00:00,45.7,37.4,29.83,SSW,202,1.0,2.0,72,0.00,,,0.00,WeatherTracker,2013-02-26 18:00:00,
2013-02-26 10:05:00,45.7,37.4,29.83,South,180,1.0,0.0,72,0.00,,,0.00,WeatherTracker,2013-02-26 18:05:00,
2013-02-26 10:10:00,45.7,37.4,29.83,South,180,0.0,1.0,72,0.00,,,0.00,WeatherTracker,2013-02-26 18:10:00,
2013-02-26 10:15:00,51.6,33.8,29.83,WSW,247,1.0,1.0,50,0.00,,,0.00,WeatherTracker,2013-02-26 18:15:00,
2013-02-26 10:20:00,51.6,33.8,29.83,ENE,67,1.0,1.0,50,0.00,,,0.00,WeatherTracker,2013-02-26 18:20:00,
2013-02-26 10:25:00,51.6,33.8,29.83,West,270,1.0,1.0,50,0.00,,,0.00,WeatherTracker,2013-02-26 18:25:00,
2013-02-26 10:30:00,51.6,33.8,29.83,SW,225,1.0,2.0,50,0.00,,,0.00,WeatherTracker,2013-02-26 18:30:00,
2013-02-26 10:35:00,51.6,33.8,29.83,SSE,157,1.0,1.0,50,0.00,,,0.00,WeatherTracker,2013-02-26 18:35:00,
2013-02-26 10:40:00,51.6,33.8,29.83,SSW,202,0.0,1.0,50,0.00,,,0.00,WeatherTracker,2013-02-26 18:40:00,
2013-02-26 10:45:00,61.0,39.2,29.83,SW,225,2.0,2.0,45,0.00,,,0.00,WeatherTracker,2013-02-26 18:45:00,
2013-02-26 10:50:00,61.0,39.2,29.83,West,270,2.0,2.0,45,0.00,,,0.00,WeatherTracker,2013-02-26 18:50:00,
2013-02-26 10:55:00,61.0,39.2,29.83,SSW,202,1.0,1.0,45,0.00,,,0.00,WeatherTracker,2013-02-26 18:55:00,
2013-02-26 11:00:00,61.0,39.2,29.83,South,180,2.0,0.0,45,0.00,,,0.00,WeatherTracker,2013-02-26 19:00:00,
2013-02-26 11:05:00,61.0,39.2,29.83,ESE,112,1.0,1.0,45,0.00,,,0.00,WeatherTracker,2013-02-26 19:05:00,
2013-02-26 11:10:00,70.3,42.8,29.83,SW,225,1.0,1.0,38,0.00,,,0.00,WeatherTracker,2013-02-26 19:10:00,
2013-02-26 11:15:00,70.3,42.8,29.83,WSW,247,1.0,0.0,38,0.00,,,0.00,WeatherTracker,2013-02-26 19:15:00,
2013-02-26 11:20:00,73.4,42.8,29.83,NE,45,1.0,1.0,34,0.00,,,0.00,WeatherTracker,2013-02-26 19:20:00,
2013-02-26 11:25:00,74.5,44.6,29.83,SSE,157,1.0,1.0,34,0.00,,,0.00,WeatherTracker,2013-02-26 19:25:00,
2013-02-26 11:30:00,75.0,44.6,29.83,SSW,202,1.0,2.0,33,0.00,,,0.00,WeatherTracker,2013-02-26 19:30:00,
2013-02-26 11:35:00,75.6,44.6,29.83,SSW,202,2.0,2.0,32,0.00,,,0.00,WeatherTracker,2013-02-26 19:35:00,
2013-02-26 11:40:00,75.9,42.8,29.83,ESE,112,1.0,2.0,31,0.00,,,0.00,WeatherTracker,2013-02-26 19:40:00,
2013-02-26 11:45:00,76.6,42.8,29.83,SSW,202,2.0,2.0,30,0.00,,,0.00,WeatherTracker,2013-02-26 19:45:00,
2013-02-26 11:50:00,77.9,42.8,29.83,SW,225,1.0,1.0,29,0.00,,,0.00,WeatherTracker,2013-02-26 19:50:00,
2013-02-26 11:55:00,78.4,42.8,29.83,SSW,202,2.0,2.0,29,0.00,,,0.00,WeatherTracker,2013-02-26 19:55:00,
2013-02-26 12:00:00,79.0,42.8,29.83,SW,225,3.0,3.0,27,0.00,,,0.00,WeatherTracker,2013-02-26 20:00:00,
2013-02-26 12:05:00,79.5,39.2,29.83,SW,225,1.0,0.0,24,0.00,,,0.00,WeatherTracker,2013-02-26 20:05:00,
2013-02-26 12:10:00,79.5,37.4,29.83,SW,225,1.0,1.0,22,0.00,,,0.00,WeatherTracker,2013-02-26 20:10:00,
2013-02-26 12:15:00,80.2,37.4,29.83,WSW,247,2.0,2.0,22,0.00,,,0.00,WeatherTracker,2013-02-26 20:15:00,
2013-02-26 12:20:00,80.2,37.4,29.83,ESE,112,0.0,1.0,22,0.00,,,0.00,WeatherTracker,2013-02-26 20:20:00,
2013-02-26 12:25:00,81.3,37.4,29.83,SW,225,2.0,0.0,20,0.00,,,0.00,WeatherTracker,2013-02-26 20:25:00,
2013-02-26 12:30:00,82.0,37.4,29.83,SW,225,2.0,2.0,20,0.00,,,0.00,WeatherTracker,2013-02-26 20:30:00,
2013-02-26 12:35:00,82.4,32.0,29.83,West,270,1.0,1.0,16,0.00,,,0.00,WeatherTracker,2013-02-26 20:35:00,
2013-02-26 12:40:00,82.8,37.4,29.83,WSW,247,2.0,0.0,19,0.00,,,0.00,WeatherTracker,2013-02-26 20:40:00,
2013-02-26 12:45:00,82.2,28.4,29.80,NE,45,1.0,2.0,14,0.00,,,0.00,WeatherTracker,2013-02-26 20:45:00,
2013-02-26 12:50:00,82.4,28.4,29.80,South,180,1.0,3.0,14,0.00,,,0.00,WeatherTracker,2013-02-26 20:50:00,
2013-02-26 12:55:00,83.3,19.4,29.80,SW,225,1.0,3.0,9,0.00,,,0.00,WeatherTracker,2013-02-26 20:55:00,
2013-02-26 13:00:00,83.1,19.4,29.80,WSW,247,1.0,6.0,9,0.00,,,0.00,WeatherTracker,2013-02-26 21:00:00,
2013-02-26 13:10:00,82.6,17.6,29.80,South,180,1.0,1.0,9,0.00,,,0.00,WeatherTracker,2013-02-26 21:10:00,
2013-02-26 13:15:00,82.0,24.8,29.80,East,90,1.0,1.0,12,0.00,,,0.00,WeatherTracker,2013-02-26 21:15:00,
2013-02-26 13:25:00,81.5,24.8,29.80,ENE,67,2.0,2.0,12,0.00,,,0.00,WeatherTracker,2013-02-26 21:25:00,
2013-02-26 13:30:00,81.7,28.4,29.80,NE,45,1.0,2.0,14,0.00,,,0.00,WeatherTracker,2013-02-26 21:30:00,
2013-02-26 13:35:00,81.9,35.6,29.80,SW,225,1.0,1.0,19,0.00,,,0.00,WeatherTracker,2013-02-26 21:35:00,
2013-02-26 13:40:00,82.0,28.4,29.80,ENE,67,2.0,0.0,14,0.00,,,0.00,WeatherTracker,2013-02-26 21:40:00,
2013-02-26 13:46:00,82.0,33.8,29.80,ENE,67,1.0,1.0,17,0.00,,,0.00,WeatherTracker,2013-02-26 21:46:00,
2013-02-26 13:50:00,82.0,33.8,29.80,SW,225,1.0,1.0,17,0.00,,,0.00,WeatherTracker,2013-02-26 21:50:00,
2013-02-26 14:00:00,80.8,23.0,29.80,East,90,1.0,0.0,12,0.00,,,0.00,WeatherTracker,2013-02-26 22:00:00,
2013-02-26 14:10:00,79.9,10.4,29.80,West,270,1.0,3.0,7,0.00,,,0.00,WeatherTracker,2013-02-26 22:10:00,
2013-02-26 14:15:00,78.3,-16.6,29.80,ENE,67,2.0,2.0,2,0.00,,,0.00,WeatherTracker,2013-02-26 22:15:00,
2013-02-26 14:20:00,79.2,23.0,29.80,WSW,247,1.0,1.0,12,0.00,,,0.00,WeatherTracker,2013-02-26 22:20:00,
2013-02-26 14:25:00,80.4,19.4,29.80,ENE,67,2.0,2.0,10,0.00,,,0.00,WeatherTracker,2013-02-26 22:25:00,
2013-02-26 14:30:00,79.0,3.2,29.80,SE,135,2.0,2.0,5,0.00,,,0.00,WeatherTracker,2013-02-26 22:30:00,
2013-02-26 14:35:00,79.9,10.4,29.80,SSW,202,1.0,2.0,7,0.00,,,0.00,WeatherTracker,2013-02-26 22:35:00,
2013-02-26 14:40:00,79.9,10.4,29.80,East,90,1.0,1.0,7,0.00,,,0.00,WeatherTracker,2013-02-26 22:40:00,
2013-02-26 14:45:00,80.1,23.0,29.77,WNW,292,2.0,3.0,12,0.00,,,0.00,WeatherTracker,2013-02-26 22:45:00,
2013-02-26 14:55:00,78.3,32.0,29.77,SE,135,2.0,2.0,18,0.00,,,0.00,WeatherTracker,2013-02-26 22:55:00,
2013-02-26 15:00:00,77.0,33.8,29.80,SE,135,1.0,1.0,20,0.00,,,0.00,WeatherTracker,2013-02-26 23:00:00,
2013-02-26 15:05:00,77.0,33.8,29.80,SSW,202,0.0,2.0,20,0.00,,,0.00,WeatherTracker,2013-02-26 23:05:00,
2013-02-26 15:10:00,76.8,30.2,29.80,South,180,3.0,3.0,18,0.00,,,0.00,WeatherTracker,2013-02-26 23:10:00,
2013-02-26 15:20:00,75.9,33.8,29.80,ESE,112,2.0,2.0,21,0.00,,,0.00,WeatherTracker,2013-02-26 23:20:00,
2013-02-26 15:25:00,75.2,33.8,29.80,SE,135,2.0,2.0,21,0.00,,,0.00,WeatherTracker,2013-02-26 23:25:00,
2013-02-26 15:30:00,73.9,32.0,29.80,South,180,3.0,3.0,21,0.00,,,0.00,WeatherTracker,2013-02-26 23:30:00,
2013-02-26 15:35:00,72.5,32.0,29.80,SE,135,3.0,6.0,22,0.00,,,0.00,WeatherTracker,2013-02-26 23:35:00,
2013-02-26 15:40:00,72.5,32.0,29.80,West,270,2.0,4.0,22,0.00,,,0.00,WeatherTracker,2013-02-26 23:40:00,
2013-02-26 15:45:00,71.6,30.2,29.77,SE,135,4.0,4.0,22,0.00,,,0.00,WeatherTracker,2013-02-26 23:45:00,
2013-02-26 15:50:00,70.7,32.0,29.77,SSW,202,3.0,4.0,23,0.00,,,0.00,WeatherTracker,2013-02-26 23:50:00,
2013-02-26 15:55:00,70.3,30.2,29.77,NW,315,3.0,3.0,23,0.00,,,0.00,WeatherTracker,2013-02-26 23:55:00,
2013-02-26 16:05:00,69.4,30.2,29.77,ESE,112,2.0,2.0,24,0.00,,,0.00,WeatherTracker,2013-02-27 00:05:00,
2013-02-26 16:10:00,69.6,32.0,29.77,East,90,3.0,0.0,24,0.00,,,0.00,WeatherTracker,2013-02-27 00:10:00,
2013-02-26 16:15:00,70.0,30.2,29.77,NW,315,2.0,3.0,23,0.00,,,0.00,WeatherTracker,2013-02-27 00:15:00,
2013-02-26 16:20:00,70.7,32.0,29.77,SW,225,1.0,2.0,23,0.00,,,0.00,WeatherTracker,2013-02-27 00:20:00,
2013-02-26 16:25:00,70.3,30.2,29.77,SE,135,1.0,1.0,23,0.00,,,0.00,WeatherTracker,2013-02-27 00:25:00,
2013-02-26 16:30:00,70.0,30.2,29.77,SSW,202,2.0,2.0,23,0.00,,,0.00,WeatherTracker,2013-02-27 00:30:00,
2013-02-26 16:35:00,69.4,30.2,29.77,West,270,2.0,0.0,23,0.00,,,0.00,WeatherTracker,2013-02-27 00:35:00,
2013-02-26 16:40:00,69.3,30.2,29.77,East,90,2.0,2.0,24,0.00,,,0.00,WeatherTracker,2013-02-27 00:40:00,
2013-02-26 16:45:00,68.9,30.2,29.77,SE,135,3.0,3.0,23,0.00,,,0.00,WeatherTracker,2013-02-27 00:45:00,
2013-02-26 16:50:00,68.4,30.2,29.77,SE,135,3.0,3.0,24,0.00,,,0.00,WeatherTracker,2013-02-27 00:50:00,
2013-02-26 16:55:00,67.3,30.2,29.77,North,0,3.0,3.0,25,0.00,,,0.00,WeatherTracker,2013-02-27 00:55:00,
2013-02-26 17:00:00,66.9,30.2,29.77,SSE,157,3.0,3.0,25,0.00,,,0.00,WeatherTracker,2013-02-27 01:00:00,
2013-02-26 17:05:00,65.7,30.2,29.77,ESE,112,2.0,2.0,26,0.00,,,0.00,WeatherTracker,2013-02-27 01:05:00,
2013-02-26 17:15:00,65.1,30.2,29.77,West,270,2.0,2.0,26,0.00,,,0.00,WeatherTracker,2013-02-27 01:15:00,
2013-02-26 17:20:00,64.2,30.2,29.77,SE,135,1.0,2.0,28,0.00,,,0.00,WeatherTracker,2013-02-27 01:20:00,
2013-02-26 17:25:00,62.6,30.2,29.77,NNW,337,1.0,0.0,28,0.00,,,0.00,WeatherTracker,2013-02-27 01:25:00,
2013-02-26 17:30:00,62.1,30.2,29.77,East,90,1.0,1.0,30,0.00,,,0.00,WeatherTracker,2013-02-27 01:30:00,
2013-02-26 17:41:00,62.1,32.0,29.77,NNE,22,1.0,2.0,31,0.00,,,0.00,WeatherTracker,2013-02-27 01:41:00,
2013-02-26 17:45:00,60.3,32.0,29.77,East,90,2.0,3.0,35,0.00,,,0.00,WeatherTracker,2013-02-27 01:45:00,
2013-02-26 17:50:00,59.0,33.8,29.77,ESE,112,0.0,0.0,37,0.00,,,0.00,WeatherTracker,2013-02-27 01:50:00,
2013-02-26 17:55:00,58.3,33.8,29.77,East,90,1.0,0.0,38,0.00,,,0.00,WeatherTracker,2013-02-27 01:55:00,
2013-02-26 18:00:00,57.9,33.8,29.77,SW,225,2.0,2.0,40,0.00,,,0.00,WeatherTracker,2013-02-27 02:00:00,
2013-02-26 18:05:00,57.9,33.8,29.77,SW,225,1.0,2.0,40,0.00,,,0.00,WeatherTracker,2013-02-27 02:05:00,
2013-02-26 18:10:00,57.9,33.8,29.77,West,270,2.0,2.0,40,0.00,,,0.00,WeatherTracker,2013-02-27 02:10:00,
2013-02-26 18:15:00,57.9,33.8,29.77,South,180,1.0,1.0,40,0.00,,,0.00,WeatherTracker,2013-02-27 02:15:00,
2013-02-26 18:20:00,55.6,35.6,29.77,North,0,1.0,2.0,46,0.00,,,0.00,WeatherTracker,2013-02-27 02:20:00,
2013-02-26 18:26:00,55.6,35.6,29.77,West,270,0.0,0.0,46,0.00,,,0.00,WeatherTracker,2013-02-27 02:26:00,
2013-02-26 18:35:00,55.2,37.4,29.77,ENE,67,1.0,0.0,48,0.00,,,0.00,WeatherTracker,2013-02-27 02:35:00,
2013-02-26 18:40:00,54.7,37.4,29.77,ESE,112,1.0,0.0,49,0.00,,,0.00,WeatherTracker,2013-02-27 02:40:00,
2013-02-26 18:45:00,54.7,37.4,29.77,SE,135,0.0,0.0,50,0.00,,,0.00,WeatherTracker,2013-02-27 02:45:00,
2013-02-26 18:50:00,54.7,37.4,29.77,SE,135,0.0,0.0,50,0.00,,,0.00,WeatherTracker,2013-02-27 02:50:00,
2013-02-26 18:55:00,54.7,37.4,29.77,West,270,0.0,0.0,50,0.00,,,0.00,WeatherTracker,2013-02-27 02:55:00,
2013-02-26 19:01:00,54.7,37.4,29.77,ENE,67,0.0,0.0,50,0.00,,,0.00,WeatherTracker,2013-02-27 03:01:00,
2013-02-26 19:05:00,54.7,37.4,29.77,NW,315,0.0,0.0,50,0.00,,,0.00,WeatherTracker,2013-02-27 03:05:00,
2013-02-26 19:15:00,54.7,37.4,29.80,East,90,0.0,1.0,50,0.00,,,0.00,WeatherTracker,2013-02-27 03:15:00,
2013-02-26 19:20:00,54.7,37.4,29.80,WSW,247,0.0,1.0,50,0.00,,,0.00,WeatherTracker,2013-02-27 03:20:00,
2013-02-26 19:26:00,53.1,37.4,29.80,NW,315,0.0,1.0,55,0.00,,,0.00,WeatherTracker,2013-02-27 03:26:00,
2013-02-26 19:35:00,53.1,37.4,29.80,WSW,247,0.0,0.0,55,0.00,,,0.00,WeatherTracker,2013-02-27 03:35:00,
2013-02-26 19:40:00,52.9,37.4,29.80,NW,315,1.0,1.0,57,0.00,,,0.00,WeatherTracker,2013-02-27 03:40:00,
2013-02-26 19:45:00,52.9,37.4,29.80,WSW,247,0.0,1.0,57,0.00,,,0.00,WeatherTracker,2013-02-27 03:45:00,
2013-02-26 19:50:00,52.9,37.4,29.80,ESE,112,1.0,0.0,57,0.00,,,0.00,WeatherTracker,2013-02-27 03:50:00,
2013-02-26 19:55:00,52.9,37.4,29.80,SW,225,1.0,0.0,57,0.00,,,0.00,WeatherTracker,2013-02-27 03:55:00,
2013-02-26 20:00:00,52.9,37.4,29.80,East,90,0.0,0.0,57,0.00,,,0.00,WeatherTracker,2013-02-27 04:00:00,
2013-02-26 20:05:00,51.8,39.2,29.80,West,270,0.0,1.0,62,0.00,,,0.00,WeatherTracker,2013-02-27 04:05:00,
2013-02-26 20:10:00,51.8,39.2,29.80,West,270,1.0,0.0,62,0.00,,,0.00,WeatherTracker,2013-02-27 04:10:00,
2013-02-26 20:15:00,51.8,39.2,29.80,ESE,112,1.0,3.0,62,0.00,,,0.00,WeatherTracker,2013-02-27 04:15:00,
2013-02-26 20:20:00,51.8,39.2,29.80,East,90,2.0,0.0,62,0.00,,,0.00,WeatherTracker,2013-02-27 04:20:00,
2013-02-26 20:26:00,51.4,39.2,29.80,ESE,112,1.0,2.0,63,0.00,,,0.00,WeatherTracker,2013-02-27 04:26:00,
2013-02-26 20:30:00,51.3,41.0,29.80,South,180,2.0,3.0,65,0.00,,,0.00,WeatherTracker,2013-02-27 04:30:00,
2013-02-26 20:35:00,51.1,41.0,29.80,SSW,202,1.0,0.0,66,0.00,,,0.00,WeatherTracker,2013-02-27 04:35:00,
2013-02-26 20:40:00,50.9,41.0,29.80,SSE,157,1.0,2.0,66,0.00,,,0.00,WeatherTracker,2013-02-27 04:40:00,
2013-02-26 20:46:00,50.9,41.0,29.80,East,90,0.0,1.0,66,0.00,,,0.00,WeatherTracker,2013-02-27 04:46:00,
2013-02-26 20:50:00,50.7,39.2,29.80,SSW,202,1.0,0.0,66,0.00,,,0.00,WeatherTracker,2013-02-27 04:50:00,
2013-02-26 20:55:00,50.7,39.2,29.80,East,90,1.0,0.0,65,0.00,,,0.00,WeatherTracker,2013-02-27 04:55:00,
2013-02-26 21:00:00,50.7,39.2,29.80,WNW,292,1.0,0.0,66,0.00,,,0.00,WeatherTracker,2013-02-27 05:00:00,
2013-02-26 21:05:00,50.5,39.2,29.80,East,90,2.0,0.0,66,0.00,,,0.00,WeatherTracker,2013-02-27 05:05:00,
2013-02-26 21:10:00,50.5,39.2,29.80,ESE,112,0.0,0.0,66,0.00,,,0.00,WeatherTracker,2013-02-27 05:10:00,
2013-02-26 21:15:00,50.5,39.2,29.80,SW,225,1.0,1.0,66,0.00,,,0.00,WeatherTracker,2013-02-27 05:15:00,
2013-02-26 21:20:00,50.4,41.0,29.80,West,270,0.0,0.0,67,0.00,,,0.00,WeatherTracker,2013-02-27 05:20:00,
2013-02-26 21:25:00,50.4,41.0,29.80,ENE,67,0.0,0.0,67,0.00,,,0.00,WeatherTracker,2013-02-27 05:25:00,
2013-02-26 21:30:00,50.2,39.2,29.80,SW,225,0.0,0.0,67,0.00,,,0.00,WeatherTracker,2013-02-27 05:30:00,
2013-02-26 21:35:00,50.2,39.2,29.80,WSW,247,1.0,0.0,67,0.00,,,0.00,WeatherTracker,2013-02-27 05:35:00,
2013-02-26 21:40:00,50.4,41.0,29.80,NNE,22,0.0,0.0,68,0.00,,,0.00,WeatherTracker,2013-02-27 05:40:00,
2013-02-26 21:45:00,50.2,41.0,29.80,NNE,22,0.0,0.0,68,0.00,,,0.00,WeatherTracker,2013-02-27 05:45:00,
2013-02-26 21:50:00,49.8,41.0,29.80,NNE,22,0.0,0.0,68,0.00,,,0.00,WeatherTracker,2013-02-27 05:50:00,
2013-02-26 21:55:00,49.8,41.0,29.80,East,90,0.0,0.0,68,0.00,,,0.00,WeatherTracker,2013-02-27 05:55:00,
2013-02-26 22:00:00,49.8,41.0,29.80,East,90,0.0,0.0,68,0.00,,,0.00,WeatherTracker,2013-02-27 06:00:00,
2013-02-26 22:05:00,49.5,39.2,29.80,NE,45,0.0,0.0,68,0.00,,,0.00,WeatherTracker,2013-02-27 06:05:00,
2013-02-26 22:10:00,49.3,39.2,29.80,NE,45,0.0,0.0,68,0.00,,,0.00,WeatherTracker,2013-02-27 06:10:00,
2013-02-26 22:15:00,48.9,39.2,29.80,NE,45,0.0,0.0,68,0.00,,,0.00,WeatherTracker,2013-02-27 06:15:00,
2013-02-26 22:20:00,48.7,39.2,29.80,NE,45,0.0,0.0,68,0.00,,,0.00,WeatherTracker,2013-02-27 06:20:00,
2013-02-26 22:25:00,48.6,39.2,29.80,NE,45,0.0,0.0,68,0.00,,,0.00,WeatherTracker,2013-02-27 06:25:00,
2013-02-26 22:30:00,48.4,37.4,29.80,NE,45,0.0,0.0,67,0.00,,,0.00,WeatherTracker,2013-02-27 06:30:00,
2013-02-26 22:35:00,48.2,39.2,29.80,NE,45,0.0,0.0,68,0.00,,,0.00,WeatherTracker,2013-02-27 06:35:00,
2013-02-26 22:40:00,48.0,39.2,29.80,NE,45,0.0,0.0,69,0.00,,,0.00,WeatherTracker,2013-02-27 06:40:00,
2013-02-26 22:45:00,47.8,39.2,29.80,NE,45,0.0,0.0,70,0.00,,,0.00,WeatherTracker,2013-02-27 06:45:00,
2013-02-26 22:50:00,47.7,39.2,29.80,NE,45,0.0,0.0,70,0.00,,,0.00,WeatherTracker,2013-02-27 06:50:00,
2013-02-26 22:55:00,47.7,39.2,29.80,NE,45,0.0,0.0,71,0.00,,,0.00,WeatherTracker,2013-02-27 06:55:00,
2013-02-26 23:00:00,47.7,39.2,29.80,NE,45,0.0,0.0,71,0.00,,,0.00,WeatherTracker,2013-02-27 07:00:00,
2013-02-26 23:05:00,47.5,39.2,29.80,NE,45,0.0,0.0,71,0.00,,,0.00,WeatherTracker,2013-02-27 07:05:00,
2013-02-26 23:10:00,47.5,39.2,29.80,NE,45,0.0,0.0,71,0.00,,,0.00,WeatherTracker,2013-02-27 07:10:00,
2013-02-26 23:15:00,47.5,39.2,29.80,NE,45,0.0,0.0,71,0.00,,,0.00,WeatherTracker,2013-02-27 07:15:00,
2013-02-26 23:20:00,47.5,39.2,29.80,NE,45,0.0,0.0,70,0.00,,,0.00,WeatherTracker,2013-02-27 07:20:00,
2013-02-26 23:25:00,47.5,39.2,29.80,NE,45,0.0,0.0,71,0.00,,,0.00,WeatherTracker,2013-02-27 07:25:00,
2013-02-26 23:30:00,47.5,39.2,29.80,NE,45,0.0,0.0,71,0.00,,,0.00,WeatherTracker,2013-02-27 07:30:00,
2013-02-26 23:35:00,47.7,39.2,29.80,ENE,67,0.0,0.0,72,0.00,,,0.00,WeatherTracker,2013-02-27 07:35:00,
2013-02-26 23:40:00,47.7,39.2,29.80,ENE,67,0.0,0.0,72,0.00,,,0.00,WeatherTracker,2013-02-27 07:40:00,
2013-02-26 23:45:00,47.7,39.2,29.80,ENE,67,0.0,0.0,72,0.00,,,0.00,WeatherTracker,2013-02-27 07:45:00,
2013-02-26 23:50:00,47.5,39.2,29.80,ENE,67,0.0,0.0,73,0.00,,,0.00,WeatherTracker,2013-02-27 07:50:00,
2013-02-26 23:55:00,47.3,39.2,29.80,ENE,67,0.0,0.0,73,0.00,,,0.00,WeatherTracker,2013-02-27 07:55:00,